Regional Weather Roundup
Issued by NWS

Home | Current Version | Previous Version | Text Only | Print | Product List | Glossary On
Versions: 1 2 3 4 5 6 7 8 9 10 11 12 13 14 15 16 17 18 19 20 21 22 23 24 25 26 27 28 29 30 31 32 33 34 35 36 37 38 39 40 41 42 43 44 45 46 47 48 49 50
000
ASUS45 KBOU 291007
RWRCO

WEATHER ROUNDUP FOR COLORADO
NATIONAL WEATHER SERVICE DENVER/BOULDER CO
400 AM MDT FRI JUL 29 2016

NOTE: "FAIR" INDICATES FEW OR NO CLOUDS BELOW 12000 FEET WITH NO
SIGNIFICANT WEATHER AND/OR OBSTRUCTIONS TO VISIBILITY.

COZ001>005-013-030-031-291100-
...NORTHWEST COLORADO...

CITY           SKY/WX    TMP DP  RH WIND       PRES   REMARKS
CRAIG          FAIR      49  38  65 CALM      30.21R
HAYDEN         FAIR      54  32  43 CALM      30.22R
MEEKER         FAIR      53  37  54 S6        30.22S
MOUNT WERNER   NOT AVBL
STEAMBOAT SPGS FAIR      51  38  62 CALM      30.24R
WALDEN         FAIR      41  36  81 E5        30.36R
$$

COZ006>008-011-291100-
...WEST CENTRAL VALLEYS...

CITY           SKY/WX    TMP DP  RH WIND       PRES   REMARKS
GRAND JUNCTION FAIR      70  29  21 SE3       30.05R
MONTROSE       FAIR      63  37  38 S9        30.16R
EAGLE          FAIR      55  32  41 CALM      30.25R
RIFLE          FAIR      58  34  40 CALM      30.15R
DELTA          NOT AVBL
NUCLA          NOT AVBL
$$

COZ017>023-064>068-291100-
...SOUTHWEST COLORADO...

CITY           SKY/WX    TMP DP  RH WIND       PRES   REMARKS
DURANGO        FAIR      58  39  49 CALM      30.22F
CORTEZ         FAIR      62  39  42 E8        30.15S
PAGOSA SPRINGS FAIR      53  38  55 CALM      30.33S
TELLURIDE      FAIR      58  30  34 SE3       30.45S
WOLF CREEK PAS FAIR      50  34  53 SW15      30.68S
$$

COZ009-010-012-014-032>034-037-058>063-291100-
...CENTRAL COLORADO...

CITY           SKY/WX    TMP DP  RH WIND       PRES   REMARKS
ASPEN          FAIR      50  35  56 S7        30.31S
BUENA VISTA    MOCLDY    57  51  78 CALM      30.37S
COPPER MTN     FAIR      54  23  30 W7        30.64S
BERTHOUD PASS  FAIR      45  32  61 NW10      30.65F
COTTONWOOD PAS FAIR      55  45  67 CALM      30.49F
GUNNISON       FAIR      48  36  61 NW3       30.35S
KREMMLING      FAIR      45  37  76 CALM      30.32R
LEADVILLE      FAIR      48  36  63 E6        30.48S
MONARCH PASS   FAIR      52  34  50 MISG      30.74S
SALIDA         FAIR      60  53  76 S6        30.42S
SUNLIGHT       NOT AVBL
WILKERSON PASS FAIR      48  45  87 SW6       30.61F
$$

COZ069>075-291100-
...SAN LUIS VALLEY/SANGRE DE CRISTO MOUNTAINS...

CITY           SKY/WX    TMP DP  RH WIND       PRES   REMARKS
ALAMOSA        FAIR      55  45  68 SE7       30.31R
LA VETA PASS   FAIR      52  41  66 S5        30.51F
SAGUACHE       FAIR      59  34  38 N9        30.34S
$$

COZ035-036-038>040-291100-
...NORTHERN COLORADO FRONT RANGE...

CITY           SKY/WX    TMP DP  RH WIND       PRES   REMARKS
DENVER INTL AP FAIR      60  56  86 SE6       30.20F
DMNS CITY PARK   N/A     65  58  78 N2        30.18F
AURORA         PTCLDY    60  58  92 E7        30.21F
FRONT RANGE AP NOT AVBL
ERIE MUNI ARPT CLOUDY    67  59  75 E5        30.18F
BOULDER MUN AP NOT AVBL
CENTENNIAL     FAIR      63  56  78 CALM      30.21F
BROOMFIELD     CLOUDY    66  59  77 NE6       30.22S
LONGMONT       NOT AVBL
$$

COZ041-046-047-076>085-087-088-291100-
...PIKES PEAK/PALMER DIVIDE AND SOUTHERN FOOTHILLS...

CITY           SKY/WX    TMP DP  RH WIND       PRES   REMARKS
COLO. SPRINGS  FAIR      61  57  87 E7        30.26F
A. F. ACADEMY  FAIR      57  56  97 W2        30.26F
SCHRIEVER AFB  NOT AVBL
ELLICOTT       NOT AVBL
FALCON         NOT AVBL
FORT CARSON    FAIR      62  57  84 SW3       30.23F
LIMON          FAIR      58  56  93 SW3       30.22F
MONUMENT HILL  FAIR      54  54 100 S9        30.30F
TRINIDAD       NOT AVBL
$$

COZ042>045-048>051-090-091-291100-
...NORTHEAST COLORADO...

CITY           SKY/WX    TMP DP  RH WIND       PRES   REMARKS
GREELEY ARPT   CLOUDY    64  61  88 E8        30.20S
AKRON          LGT RAIN  61  57  87 S8        30.20R
BURLINGTON     FAIR      62  58  86 CALM      30.15F
WRAY           NOT AVBL
STERLING       NOT AVBL
HOLYOKE        NOT AVBL
FORT MORGAN    NOT AVBL
$$

COZ086-089-092>099-291100-
...SOUTHEAST COLORADO...

CITY           SKY/WX    TMP DP  RH WIND       PRES   REMARKS
PUEBLO         FAIR      65  60  84 CALM      30.17F
LA JUNTA       FAIR      65  60  84 W12       30.13F
LAMAR          FAIR      65  62  90 N5        30.10R
SPRINGFIELD      N/A     64  57  78 SW6       30.09F
$$



USA.gov is the U.S. government's official web portal to all federal, state and local government web resources and services.